Location: Rounton
(54.4000°N, 1.3500°W)
Time: 22:07:23
(UTC+01:00)

YAOGAN 20A - Pass Details

Date: 29 June 2022
Orbit: 891 x 1288 km, 63.4° (Epoch: 18 August)

Event Time Altitude Azimuth Distance (km) Brightness Sun altitude
Rises 02:25:47 0° 311° (NW) 3,833 8.3 -10.6°
Reaches altitude 10° 02:28:21 10° 308° (NW) 2,931 7.7 -10.5°
Maximum altitude 02:35:11 58° 232° (SW) 1,340 5.4 -10.2°
Drops below altitude 10° 02:42:39 10° 156° (SSE) 3,187 7.2 -9.8°
Sets 02:45:34 0° 153° (SSE) 4,189 7.8 -9.6°
